This is the latest recevied weather packets stored in our database for station/object K4IR. If no packets are shown the sender has not sent any weather packets the latest 10 day(s).
| Time | Temp. | Humidity | Pressure | Rain* | Wind** | Luminosity | Snow |
|---|---|---|---|---|---|---|---|
| 1787656862 | 20.56° C | 99% | 1016.7 hPa | 0 mm | - | 23 W/m² | - |
| 1787656258 | 20.56° C | 99% | 1016.5 hPa | 0 mm | - | 18 W/m² | - |
| 1787655656 | 20.56° C | 99% | 1016.6 hPa | 0 mm | - | 10 W/m² | - |
| 1787655054 | 20.56° C | 99% | 1016.3 hPa | 0 mm | - | 4 W/m² | - |
| 1787654452 | 20.56° C | 99% | 1016.3 hPa | 0 mm | - | 1 W/m² | - |
| 1787653847 | 20.56° C | 99% | 1016.3 hPa | 0 mm | - | 0 W/m² | - |
| 1787653243 | 20.56° C | 99% | 1016.1 hPa | 0 mm | - | 0 W/m² | - |
| 1787652640 | 20° C | 99% | 1016 hPa | 0 mm | - | 0 W/m² | - |
| 1787652034 | 20° C | 99% | 1015.7 hPa | 0 mm | - | 0 W/m² | - |
| 1787651433 | 20° C | 99% | 1015.3 hPa | 0 mm | - | 0 W/m² | - |
| 1787650831 | 20° C | 99% | 1015.5 hPa | 0 mm | - | 0 W/m² | - |
| 1787650227 | 20° C | 99% | 1015.6 hPa | 0 mm | - | 0 W/m² | - |
| 1787649623 | 20° C | 99% | 1015.4 hPa | 0 mm | - | 0 W/m² | - |
| 1787649019 | 20° C | 99% | 1015.2 hPa | 0 mm | - | 0 W/m² | - |
| 1787648417 | 20.56° C | 99% | 1015.2 hPa | 0 mm | - | 0 W/m² | - |
| 1787647817 | 20.56° C | 99% | 1015.2 hPa | 0 mm | - | 0 W/m² | - |
| 1787647212 | 20.56° C | 99% | 1015 hPa | 0 mm | - | 0 W/m² | - |
| 1787646609 | 20.56° C | 99% | 1015.1 hPa | 0 mm | - | 0 W/m² | - |
| 1787646005 | 21.11° C | 99% | 1015 hPa | 0 mm | - | 0 W/m² | - |
| 1787645402 | 21.11° C | 99% | 1014.9 hPa | 0 mm | - | 0 W/m² | - |
| 1787644797 | 21.11° C | 99% | 1015.2 hPa | 0 mm | - | 0 W/m² | - |
| 1787644194 | 21.11° C | 99% | 1015.2 hPa | 0 mm | - | 0 W/m² | - |
| 1787643595 | 20.56° C | 99% | 1015.3 hPa | 0 mm | - | 0 W/m² | - |
| 1787642993 | 21.11° C | 99% | 1015.3 hPa | 0 mm | - | 0 W/m² | - |
| 1787642393 | 21.11° C | 99% | 1015.4 hPa | 0 mm | - | 0 W/m² | - |
* Rain latest hour (hover to see other rain measurements)
** Current wind speed in m/s (hover to see current wind gust speed)